Regional Weather Roundup
Issued by NWS Goodland, KS

Home | Current Version | Previous Version | Text Only | Print | Product List | Glossary Off
Versions: 1 2 3 4 5 6 7 8 9 10 11 12 13 14 15 16 17 18 19 20 21 22 23 24 25 26 27 28 29 30 31 32 33 34 35 36 37 38 39 40 41 42 43 44 45 46 47 48 49 50

000
ASUS43 KGLD 301859
RWRGLD

GOODLAND FORECAST AREA HOURLY WEATHER ROUNDUP
NATIONAL WEATHER SERVICE GOODLAND KS
100 PM MDT WED JUL 30 2014

...OFFICIAL OBSERVATIONS...

CITY           SKY/WX    TMP DP  RH WIND       PRES   REMARKS
GOODLAND KS    CLOUDY    67  57  70 E13       30.26F
HILL CITY KS   CLOUDY    73  57  57 VRB3      30.20S
IMPERIAL NEB   PTSUNNY   74  57  55 VRB5      30.24F
MCCOOK NEB     CLOUDY    75  57  53 E6        30.21F
AKRON CO       CLOUDY    63  56  78 SE10      30.31S
BURLINGTON CO  CLOUDY    65  56  72 NE10      30.28R
LIMON CO       CLOUDY    60  55  83 E12       30.34S
$$

...UNOFFICIAL OBSERVATIONS...

CITY           SKY/WX    TMP DP  RH WIND       PRES   REMARKS
COLBY KS       MOSUNNY   70  61  73 NE9       30.25
GOVE KS          N/A     68  32  26 MISG        N/A
NORTON KS      PTSUNNY   75  54  46 E8        30.19
WAKEENEY KS      N/A     70  52  52 MISG        N/A
KIT CARSON CO    N/A     62  56  82 N8G16       N/A
YUMA CO          N/A     64  58  82 CALM        N/A
$$


USA.gov is the U.S. government's official web portal to all federal, state and local government web resources and services.